Regional Weather Roundup
Issued by NWS Northern Indiana

Home | Current Version | Previous Version | Graphics & Text | Print | Product List | Glossary On
Versions: 1 2 3 4 5 6 7 8 9 10 11 12 13 14 15 16 17 18 19 20 21 22 23 24 25 26 27 28 29 30 31 32 33 34 35 36 37 38 39 40 41 42 43 44 45 46 47 48 49 50
000
ASUS43 KIWX 241510
RWRIWX

KIWX WEATHER ROUNDUP
NATIONAL WEATHER SERVICE NORTHERN INDIANA
1100 AM EDT WED AUG 24 2016

NOTE: "FAIR" INDICATES FEW OR NO CLOUDS BELOW 12,000 FEET WITH NO
SIGNIFICANT WEATHER AND/OR OBSTRUCTIONS TO VISIBILITY.

* THESE STATIONS ARE NOT UNDER NWS QUALITY CONTROL. THEY ALSO MAY NOT
  REPORT WEATHER SUCH AS PRECIPITATION OR FOG.

INZ001>027-241600-
NORTHERN INDIANA

CITY           SKY/WX    TMP DP  RH WIND       PRES   REMARKS
GARY*          LGT RAIN  73  72  94 S9        30.03F
VALPARAISO     LGT RAIN  71  69  93 S7        30.06R
MICHIGAN CITY* RAIN      72  70  94 MISG      30.05S
LAPORTE*       LGT RAIN  73  73 100 S5        30.07R
KNOX*          CLOUDY    72  50  46 S8        30.05S
SOUTH BEND     PTSUNNY   74  68  81 SW13      30.07R
ELKHART*       CLOUDY    73  68  83 S10       30.07S
GOSHEN         CLOUDY    76  67  73 S10       30.08S
MONTICELLO*    LGT RAIN  74  66  77 S5        30.07R
LOGANSPORT*    CLOUDY    73  70  88 S9        30.10R
ROCHESTER*     CLOUDY    77  72  83 S9        30.08S
WARSAW*        CLOUDY    73  68  83 S5        30.09S
ANGOLA*        PTSUNNY   75  68  78 S8        30.09F
FORT WAYNE     CLOUDY    75  66  73 S13       30.11F
HUNTINGTON*    CLOUDY   N/A N/A N/A S6        30.10F
PERU/GRISSOM   CLOUDY    77  70  81 S13       30.08S
MARION*        CLOUDY    76  68  77 SW12G17   30.12F

$$
INZ028>050-241600-
CENTRAL INDIANA

CITY           SKY/WX    TMP DP  RH WIND       PRES   REMARKS
LAFAYETTE      LGT RAIN  74  71  91 SW7       30.08R
KOKOMO*        CLOUDY    75  66  73 S13       30.10S
MUNCIE*        MOSUNNY   77  68  73 S10       30.13F
INDIANAPOLIS   CLOUDY    76  69  79 S13       30.12S

$$
MIZ043>046-050>051-056>058-064>065-071>073-077>080-241600-
SOUTHWEST LOWER MICHIGAN

CITY           SKY/WX    TMP DP  RH WIND       PRES   REMARKS
BATTLE CREEK   RAIN      70  68  93 S12       30.06F FOG
BENTON HARBOR  CLOUDY    75  67  76 S13       30.03F
COLDWATER*     PTSUNNY   76  67  74 S8        30.08F
HILLSDALE*     CLOUDY    73  65  75 S7        30.10F
HOLLAND        LGT RAIN  72  69  90 SW17G26   30.02F FOG
GRAND RAPIDS   CLOUDY    74  65  73 S10       30.02F
KALAMAZOO      CLOUDY    73  67  81 S9        30.05F
STURGIS*       CLOUDY    74  66  76 S12       30.07F
THREE RIVERS*  CLOUDY    75  68  79 S7        30.07F

$$
OHZ001>008-015>018-024>025-241600-
NORTHWEST OHIO

CITY           SKY/WX    TMP DP  RH WIND       PRES   REMARKS
WAUSEON*       PTSUNNY   77  66  69 S10       30.12S
DEFIANCE       MOSUNNY   79  66  64 S10       30.12S
FINDLAY        PTSUNNY   79  64  60 S15       30.14F
TOLEDO EXPRESS PTSUNNY   77  66  68 VRB7      30.12S
TOLEDO METCALF MOSUNNY   78  66  66 S15       30.14S
LIMA           CLOUDY    75  66  73 S12       30.16S

$$
AND FOR LAKE MICHIGAN COASTAL AND OPEN LAKE BUOY OBSERVATIONS

STATION/POSITION TEMP    WIND        PRES    VSBY  WAVE
                 AIR SEA DIR/SP/G                  HT/PER
                 (F)     (DEG/KT/KT) (MB)    (MI)  (FT/S)
CALUMET HARBOR    72     200/  7/ 11 1015.9F
MICHIGAN CITY     72     150/ 12/ 14   N/A
BURNS HARBOR      73     190/ 12/ 20 1017.3S
SAINT JOSEPH      74     200/  6/ 13 1017.6R
SOUTH LAKE BUOY   72 75  200/ 17/ 21 1014.2F         5/ 6
4 MI NW BRIDGMAN  74 74  190/ 16/ 19 1016.4F         3/ 4
MICHIGAN CITY     73 73  190/ 12/ 16   N/A           2/ 3

$$
&&




USA.gov is the U.S. government's official web portal to all federal, state and local government web resources and services.